This is the latest recevied weather packets stored in our database for station/object KG7DQI-13. If no packets are shown the sender has not sent any weather packets the latest 1 day(s).
| Time | Temp. | Humidity | Pressure | Rain* | Wind** | Luminosity | Snow |
|---|---|---|---|---|---|---|---|
| 1778037318 | 21.11° C | 46% | 911.9 hPa | 0 mm | 0 m/s | 0 W/m² | - |
| 1778036376 | 21.67° C | 44% | 911.8 hPa | 0 mm | 0 m/s | 11 W/m² | - |
| 1778035466 | 22.78° C | 43% | 911.7 hPa | 0 mm | 0 m/s | 16 W/m² | - |
| 1778034605 | 23.33° C | 41% | 911.6 hPa | 0 mm | 0 m/s | 21 W/m² | - |
| 1778033674 | 23.89° C | 39% | 911.6 hPa | 0 mm | 0 m/s | 37 W/m² | - |
| 1778032746 | 23.89° C | 39% | 911.5 hPa | 0 mm | 0 m/s | 44 W/m² | - |
| 1778031836 | 24.44° C | 38% | 911.5 hPa | 0 mm | 0 m/s | 51 W/m² | - |
| 1778030895 | 24.44° C | 36% | 911.4 hPa | 0 mm | 0 m/s | 70 W/m² | - |
| 1778029966 | 24.44° C | 36% | 911.2 hPa | 0 mm | 0.45 m/s, 39° | 62 W/m² | - |
| 1778029080 | 25° C | 35% | 911.2 hPa | 0 mm | 0.45 m/s, 21° | 47 W/m² | - |
| 1778028165 | 25° C | 35% | 911.1 hPa | 0 mm | 0.45 m/s, 76° | 104 W/m² | - |
| 1778027227 | 25.56° C | 34% | 911.1 hPa | 0 mm | 0.45 m/s, 43° | 98 W/m² | - |
| 1778026340 | 25.56° C | 34% | 911.1 hPa | 0 mm | 1.34 m/s, 296° | 100 W/m² | - |
| 1778025464 | 26.11° C | 33% | 911 hPa | 0 mm | 0.89 m/s, 72° | 79 W/m² | - |
| 1778024557 | 26.67° C | 32% | 911.1 hPa | 0 mm | 1.34 m/s, 54° | 72 W/m² | - |
| 1778023685 | 26.67° C | 31% | 911.1 hPa | 0 mm | 0.89 m/s, 19° | 60 W/m² | - |
| 1778022797 | 26.67° C | 31% | 911.1 hPa | 0 mm | 1.34 m/s, 62° | 56 W/m² | - |
| 1778021879 | 26.67° C | 31% | 911.1 hPa | 0 mm | 0.89 m/s, 66° | 652 W/m² | - |
| 1778020984 | 27.22° C | 31% | 911.1 hPa | 0 mm | 1.34 m/s, 42° | 680 W/m² | - |
| 1778020041 | 27.22° C | 30% | 911.2 hPa | 0 mm | 1.34 m/s, 20° | 714 W/m² | - |
| 1778019126 | 27.22° C | 30% | 911.2 hPa | 0 mm | 1.34 m/s, 84° | 742 W/m² | - |
| 1778018191 | 27.78° C | 29% | 911.4 hPa | 0 mm | 1.34 m/s, 85° | 770 W/m² | - |
| 1778017299 | 27.22° C | 30% | 911.4 hPa | 0 mm | 1.34 m/s, 22° | 798 W/m² | - |
| 1778016381 | 26.67° C | 28% | 911.5 hPa | 0 mm | 1.34 m/s, 209° | 817 W/m² | - |
| 1778015467 | 26.67° C | 29% | 911.5 hPa | 0 mm | 0.89 m/s, 35° | 837 W/m² | - |
* Rain latest hour (hover to see other rain measurements)
** Current wind speed in m/s (hover to see current wind gust speed)